sat.trackr.live / text

‹ back to catalog

STARLINK-5283

NORAD 55396 · 2023-014F

PAYLOAD ACTIVE UNKNOWN

§ Identity

Operator
Country
US
Launch date
2023-01-31
Launch site
AFWTR
Launch vehicle
Mass (kg)
RCS (m²)

Purposes: comms

External: N2YO · Heavens-Above · Gunter

§ Orbital elements

Epoch: 2026-05-25T05:29:14.521056Z

Period
96.11 min
Inclination
69.9993°
Eccentricity
0.0003370
Mean motion
14.98328375 rev/d
Perigee alt
569.7 km
Apogee alt
574.4 km
Semi-major
6,950.2 km
B*
-4.7836e-6
RAAN
231.3334°
Arg perigee
268.9672°
Mean anomaly
91.1101°
Rev number
18,352

§ Raw data

STARLINK-52831 55396U 23014F   26145.22864029 -.00000150  00000+0 -47836-5 0  99992 55396  69.9993 231.3334 0003370 268.9672  91.1101 14.98328375183529

JSON: /api/v1/satellites/55396 · /tle

For live sub-satellite position, see the globe view (requires WebGL).

§ Visibility from observer

Set your observer location to see the next 7 days of passes ≥ 10°. The values pass through the URL so the page stays shareable.

No JS? Fill the form by hand. The geolocation button needs JavaScript.